Theta_e
328 329 329 334 340 344 347 345 342 348 349 345 346 343 339 342 344 348 351 346 332 325 319 319 321 323 323 322 323 324 326 327 327 327 328 330 331 333 334 335 334 334 335 336 337 337 337 337 337
328 328 331 335 338 344 346 345 348 346 346 348 344 341 341 347 351 351 350 339 330 324 319 319 321 322 322 322 323 325 326 327 327 327 329 331 332 334 335 336 336 335 335 336 337 337 337 337 338
328 327 331 328 329 340 344 345 345 344 342 342 343 346 343 351 351 350 338 333 330 324 319 319 321 322 322 322 323 325 326 327 327 328 329 331 333 333 334 336 337 336 336 336 336 336 337 339 338
322 327 332 329 329 331 339 344 345 346 345 340 343 341 344 350 351 349 338 333 328 324 320 319 321 322 322 322 323 325 325 326 327 328 330 332 333 332 332 332 333 334 334 335 334 335 338 337 337
321 326 323 325 346 348 345 342 345 342 341 338 339 343 350 350 349 347 339 332 327 323 321 319 321 322 322 322 323 324 325 326 326 327 328 329 330 331 330 330 329 330 330 331 332 334 336 336 337
320 324 322 324 347 348 345 344 344 344 343 339 340 343 349 348 347 349 347 338 331 323 321 319 320 322 322 323 323 324 324 325 325 326 326 326 327 327 328 329 330 330 330 329 329 330 333 335 335
318 318 322 322 347 349 346 341 337 340 344 346 340 341 344 350 348 346 347 343 335 324 322 320 320 321 322 323 323 323 325 325 325 326 326 327 327 327 327 326 326 327 326 326 326 325 324 330 330
320 317 320 320 335 347 343 341 339 340 344 344 342 341 342 348 346 347 342 338 326 325 322 320 319 320 321 322 322 323 323 324 324 325 325 325 326 331 337 334 337 334 336 332 331 326 330 326 326
319 314 316 321 347 345 342 343 343 340 340 341 346 342 343 345 346 345 344 342 342 331 336 333 332 339 334 330 323 322 322 323 323 323 324 324 326 333 339 339 339 340 340 337 337 339 338 340 343
316 313 334 343 345 345 347 343 340 340 337 342 343 340 343 348 349 348 348 347 347 348 347 346 344 342 340 338 332 321 328 324 323 323 324 325 329 338 340 341 342 342 340 340 338 337 340 340 342
316 315 342 346 346 343 339 343 345 340 343 343 338 338 339 342 344 346 346 347 347 347 347 343 345 344 345 342 339 338 339 339 338 340 341 340 336 338 340 343 342 340 339 339 337 337 337 337 338
317 319 347 345 344 342 345 345 341 341 337 337 337 338 339 340 341 341 340 341 341 342 341 343 343 342 343 344 342 340 340 341 340 342 343 342 340 337 339 341 341 342 340 339 337 335 335 334 336
316 327 347 346 344 344 341 337 333 330 331 334 335 337 335 335 338 339 339 338 338 337 338 339 340 341 342 341 339 339 339 338 340 341 342 343 344 342 340 340 341 341 340 339 337 337 336 335 334
318 340 343 343 339 336 335 334 333 327 329 329 332 330 330 331 332 333 334 337 338 338 338 336 335 339 340 339 339 338 338 338 339 337 340 341 341 343 341 339 337 340 340 337 337 337 336 335 334
327 335 334 335 335 334 333 330 329 327 330 325 325 324 324 324 326 330 331 334 336 338 338 339 338 334 337 339 338 338 337 338 338 338 338 337 339 339 337 337 336 334 335 336 337 337 336 335 334
316 329 332 333 333 332 330 332 327 326 328 323 323 322 322 322 323 323 325 327 330 332 336 339 340 340 340 337 339 338 338 338 340 340 340 340 339 338 338 339 338 338 336 333 335 336 335 335 335
314 317 324 333 330 331 329 329 326 326 326 323 323 322 320 320 320 321 322 325 326 328 330 332 335 337 338 341 341 341 340 341 343 343 342 340 340 339 340 341 341 340 339 338 338 337 338 338 338
314 316 320 329 330 328 328 328 326 324 324 322 321 319 318 318 317 317 318 319 319 320 323 323 328 332 334 337 339 342 342 340 339 339 340 339 340 342 341 340 339 339 340 340 341 342 343 342 342
315 317 316 320 327 325 328 328 326 324 322 320 319 318 317 317 315 315 314 314 313 313 313 314 315 325 328 331 334 335 337 337 336 335 335 335 335 337 337 338 338 337 337 338 339 339 339 339 340
315 316 316 322 322 324 327 329 324 323 321 319 318 317 316 315 314 313 313 312 312 311 310 310 309 311 314 322 328 329 329 328 327 324 322 321 325 326 326 328 328 326 326 327 329 331 333 332 331
316 316 317 323 325 324 326 326 325 322 321 319 318 317 316 315 314 313 312 312 311 310 309 308 308 308 308 310 312 314 314 312 311 309 309 309 309 309 309 309 308 308 307 307 307 307 308 311 314
318 319 319 324 324 327 323 327 322 321 320 318 316 315 314 314 313 312 311 311 310 309 308 308 307 307 307 307 308 308 308 308 307 307 307 307 307 306 306 305 305 305 305 305 305 305 305 305 305
320 320 319 324 322 322 325 321 320 321 318 316 313 314 314 313 313 311 310 309 309 309 308 307 307 307 307 306 306 306 306 307 305 305 305 304 304 304 303 303 304 304 304 304 304 304 304 303 303
320 319 318 320 320 323 324 324 319 322 322 315 313 313 313 313 312 310 310 309 309 309 308 307 307 306 306 306 306 306 306 305 304 304 303 301 300 301 300 300 300 301 302 302 303 302 302 302 302
319 316 316 318 317 323 320 323 321 320 320 316 312 311 312 311 311 310 310 309 309 308 308 307 307 306 306 306 306 305 304 303 303 302 301 300 300 299 299 299 298 298 299 299 300 301 300 300 301
318 315 317 319 321 321 321 324 321 316 318 314 312 312 311 311 310 310 309 309 309 308 307 307 307 306 306 306 307 306 303 302 302 302 301 300 299 298 299 299 298 297 297 297 297 298 298 299 299
322 319 316 318 320 319 320 320 315 313 312 311 310 310 310 310 310 309 309 308 308 307 307 307 306 306 306 306 306 305 304 302 303 302 299 299 298 298 299 299 298 297 296 295 296 297 297 298 299
323 320 322 319 322 325 325 322 318 313 312 311 309 309 309 310 309 308 308 308 307 307 307 306 306 305 305 305 306 305 304 303 302 299 297 299 298 297 300 300 299 297 295 295 295 295 296 297 298
326 327 324 319 320 323 329 329 317 312 311 310 309 309 310 309 309 309 307 307 307 307 306 305 305 305 305 305 305 304 304 303 302 301 298 296 296 296 298 300 299 297 295 294 295 295 295 296 297
328 328 325 326 328 325 328 324 313 310 310 310 310 309 309 309 309 308 307 306 306 306 305 305 305 305 304 305 304 304 303 303 303 302 300 294 294 295 297 299 298 296 294 293 293 294 295 295 297
Wind_Speed
15 17 12 1 3 4 6 2 3 10 6 7 15 10 13 15 2 3 18 18 24 20 18 17 15 16 18 18 18 18 18 18 18 19 20 19 18 17 17 17 17 17 17 17 17 16 16 14 11
16 18 5 4 5 3 4 3 12 12 11 16 27 19 14 5 10 18 24 23 22 19 17 18 16 16 17 18 17 17 17 17 16 18 18 17 16 16 15 14 14 14 14 13 13 12 13 12 11
18 14 3 4 4 5 5 4 13 17 17 11 8 10 7 7 22 19 22 23 22 20 18 18 16 15 17 17 16 16 16 16 15 15 15 15 14 14 13 12 12 11 10 9 9 10 11 11 10
11 4 2 4 4 5 5 20 11 11 5 10 18 7 12 11 19 19 22 21 20 18 17 17 16 15 16 16 15 15 15 14 13 13 13 13 12 11 11 10 9 8 7 7 7 7 8 9 7
12 2 3 3 1 6 15 21 8 11 10 20 21 12 10 22 22 19 18 16 15 16 16 16 15 15 14 14 14 14 13 13 12 11 11 10 9 8 7 7 7 7 6 6 6 5 6 6 4
5 2 4 2 5 9 8 5 33 21 24 26 23 23 10 22 20 20 15 12 10 11 14 16 15 13 13 12 12 12 11 11 10 9 8 8 8 8 7 7 7 7 6 6 6 5 4 2 3
4 3 4 8 10 9 4 8 8 19 18 9 25 10 17 24 20 16 14 10 10 11 12 13 14 13 12 11 10 10 9 9 8 7 7 7 7 7 7 6 7 8 7 7 6 5 3 2 4
2 4 5 2 10 7 13 11 20 26 8 18 22 6 9 26 19 17 15 13 14 14 13 13 12 11 9 8 7 7 7 7 6 6 5 4 6 6 5 6 8 9 10 8 8 6 4 2 3
5 2 3 1 10 8 22 7 7 6 17 9 9 23 25 27 22 19 16 17 18 18 15 15 15 13 13 10 4 4 4 4 4 4 4 3 4 1 3 5 7 9 9 9 9 8 6 5 4
4 4 4 4 25 16 18 17 18 11 13 13 14 19 28 30 25 24 19 20 15 13 10 10 11 10 9 10 10 7 5 2 1 1 1 2 4 3 1 1 6 8 7 7 8 6 5 9 5
3 5 11 16 27 32 21 10 9 22 5 6 20 22 26 28 26 24 21 21 20 16 12 13 17 16 12 8 6 6 5 5 5 4 4 5 4 7 5 5 6 7 9 7 7 5 7 10 11
0 9 16 23 22 20 14 14 20 18 14 22 22 23 28 30 29 27 26 23 22 22 22 21 18 13 13 8 9 9 9 7 3 2 2 5 6 6 8 10 10 9 10 10 10 9 9 11 8
5 8 29 28 19 27 29 17 21 22 22 22 22 22 21 24 26 23 22 21 19 20 20 21 20 17 17 14 11 11 11 9 11 11 13 8 7 7 10 11 13 15 16 15 13 12 12 12 13
4 24 30 28 26 26 27 16 8 14 19 18 18 17 15 14 14 16 15 15 15 14 16 15 16 17 18 17 15 14 9 8 7 9 12 12 13 14 13 14 18 21 20 19 18 18 17 15 16
14 18 11 22 19 12 30 5 8 23 19 18 15 13 10 8 6 8 7 7 8 9 10 11 14 16 17 17 17 17 15 10 9 8 10 11 13 16 16 17 17 17 20 21 22 23 23 22 23
7 8 8 11 21 19 4 5 11 22 19 19 13 11 9 8 4 2 2 3 5 6 8 11 13 13 15 16 18 17 17 17 14 14 13 14 17 17 17 18 17 17 17 19 21 22 22 22 24
4 7 5 10 15 9 3 7 18 25 22 22 18 12 9 8 4 1 1 2 3 4 6 8 10 12 13 16 16 18 18 17 15 15 14 12 12 12 13 14 15 16 18 20 22 23 25 25 25
4 2 4 11 15 5 8 7 19 26 26 23 20 16 11 8 6 2 2 2 0 1 2 4 7 8 11 14 17 17 16 15 12 12 12 11 12 14 16 16 16 17 18 21 23 24 23 26 28
5 3 6 9 10 6 7 12 21 26 23 23 23 21 16 8 6 3 3 3 2 2 2 3 4 6 8 13 15 15 14 13 10 9 11 13 15 15 15 18 20 20 21 22 25 26 28 30 34
7 7 7 7 9 6 11 13 9 22 23 29 29 27 23 19 12 6 4 4 4 5 4 4 4 5 6 8 10 10 7 6 5 6 8 8 9 11 13 16 17 19 19 20 22 23 25 24 24
12 6 6 7 8 8 14 3 9 7 18 27 30 29 25 24 18 11 6 4 6 7 7 7 7 7 7 5 4 4 3 3 2 0 3 4 7 9 12 13 14 15 15 15 15 15 17 18 17
10 12 14 10 6 7 6 6 7 8 10 18 26 33 31 26 18 14 8 5 5 8 8 9 9 10 10 8 5 5 5 5 6 5 5 7 9 11 13 13 13 13 13 13 14 13 14 16 18
12 18 9 11 7 6 5 4 6 13 7 13 21 32 32 28 21 17 10 7 8 9 10 10 10 11 12 11 9 8 9 10 9 8 8 10 11 13 14 16 15 15 14 13 13 13 13 13 15
9 6 3 3 5 4 10 10 5 15 26 14 24 34 36 31 22 18 14 10 6 6 8 9 9 10 10 10 11 10 10 11 10 11 13 14 14 14 15 16 17 18 19 19 19 18 18 18 17
5 5 3 5 1 6 11 7 5 13 11 24 27 32 36 28 25 24 18 10 7 6 6 7 9 11 9 9 10 12 10 10 11 13 14 13 13 14 14 14 15 16 16 16 14 15 18 21 22
10 10 7 8 7 9 4 6 3 14 19 30 32 38 33 31 29 24 17 13 7 3 3 5 6 9 9 8 10 12 10 9 10 13 14 15 15 15 15 17 18 18 18 19 16 16 20 24 25
6 3 9 6 2 2 4 3 9 10 19 33 34 33 33 31 30 24 18 13 8 4 6 4 3 6 6 7 9 13 11 9 11 14 13 14 15 14 15 18 21 22 24 23 19 17 22 24 26
4 2 0 3 6 6 2 3 7 13 17 18 19 29 35 31 25 21 15 12 9 8 7 6 5 3 4 5 7 11 10 11 13 14 14 13 14 12 12 16 20 24 25 25 25 20 21 25 27
6 4 5 3 4 3 2 5 4 14 18 18 25 30 34 30 25 21 15 10 13 9 9 7 5 2 3 4 5 10 10 12 13 16 19 15 14 10 10 11 17 22 23 23 20 25 24 27 27
6 2 4 4 4 2 3 3 4 8 11 17 18 23 27 26 21 22 21 16 10 8 7 6 3 1 2 3 5 8 8 11 14 17 20 17 13 9 9 12 18 22 25 24 25 25 27 29 31
Wind_Direction
342 338 331 2 70 38 297 337 256 31 28 52 87 80 99 46 74 155 148 171 159 142 142 141 138 132 122 114 110 110 111 114 116 116 116 116 113 107 107 107 108 110 106 101 99 96 96 89 81
332 326 302 140 101 125 296 355 67 61 57 60 65 64 48 88 84 135 151 156 146 143 142 142 141 133 123 116 115 116 117 118 119 120 120 117 112 108 107 106 107 108 105 102 97 92 90 88 84
329 327 253 124 112 174 168 32 120 83 75 91 63 35 46 106 110 137 151 151 146 145 148 145 139 132 126 123 123 122 120 121 123 123 122 118 114 109 105 103 102 102 98 97 90 84 84 86 78
337 310 272 62 301 234 219 160 169 132 97 88 126 60 72 128 138 138 143 150 152 147 146 141 138 136 132 131 129 125 124 123 123 123 122 121 116 109 105 103 100 96 93 86 80 80 83 82 76
336 235 58 57 311 31 38 114 75 101 87 80 87 95 85 118 118 116 126 147 153 149 144 139 139 140 137 135 132 131 129 125 125 128 127 123 116 108 97 92 88 86 79 71 68 69 75 77 65
328 359 66 100 81 26 51 124 116 108 105 104 93 96 110 132 115 118 115 113 142 146 142 140 140 142 140 138 137 136 134 129 125 125 120 111 102 93 83 70 63 57 51 43 41 45 57 62 28
142 94 217 158 129 111 125 129 170 117 126 90 112 103 137 143 123 126 123 96 127 137 134 136 138 141 140 141 143 140 137 133 128 122 114 111 103 90 80 65 51 38 28 19 16 16 15 355 339
181 109 303 359 130 132 165 146 133 107 87 127 129 145 139 158 139 130 99 103 112 120 113 115 121 122 123 132 137 138 138 137 131 131 128 122 115 97 74 64 42 28 23 27 14 9 2 359 345
209 63 305 178 113 134 154 155 169 96 119 96 81 121 148 142 152 132 127 119 110 118 114 112 117 108 106 87 107 140 144 146 153 157 158 156 154 112 49 55 41 13 360 15 32 40 32 15 2
126 111 341 67 126 151 164 158 152 143 144 143 100 101 138 149 150 144 139 140 142 141 143 153 152 135 121 97 90 125 104 134 171 227 290 247 185 188 255 12 347 350 352 326 342 357 7 351 333
166 149 124 119 141 140 142 107 128 139 117 94 122 120 132 152 145 153 151 160 161 161 165 161 169 170 163 147 132 130 133 104 74 67 50 30 315 271 292 316 322 317 319 325 341 333 317 314 317
180 126 133 159 163 135 119 111 74 87 95 129 132 130 132 132 135 135 137 141 145 157 153 141 146 161 174 181 190 193 209 213 233 326 359 350 352 341 289 277 285 292 288 290 296 294 300 310 312
180 83 137 150 148 115 117 91 107 92 108 132 132 131 122 124 130 138 142 147 149 154 158 159 153 158 164 165 165 155 152 148 177 205 220 228 243 251 255 257 264 269 269 270 270 275 288 296 295
251 126 138 146 142 129 113 123 98 118 131 120 128 122 122 125 131 140 149 152 161 168 175 179 181 179 180 184 183 177 169 164 174 190 211 223 231 242 254 264 262 258 260 261 264 272 275 277 277
103 112 121 147 134 122 109 35 140 150 155 123 125 124 120 112 138 145 156 175 177 182 189 195 202 207 205 206 206 208 206 207 214 224 229 227 229 238 253 262 266 265 259 260 264 265 268 271 271
102 111 137 222 157 166 123 194 167 160 159 135 139 142 154 144 135 102 179 218 218 216 215 218 217 226 224 222 220 222 220 225 227 233 241 246 249 254 259 262 263 270 276 272 272 273 273 276 276
34 163 172 191 228 152 99 138 184 173 170 154 160 161 155 139 132 109 347 253 262 228 218 216 213 219 220 217 218 223 224 226 234 243 248 255 260 262 264 264 266 270 275 283 285 285 287 284 279
246 172 153 168 210 167 138 186 166 172 166 164 161 152 146 134 126 117 64 53 81 193 193 192 191 194 195 199 208 212 214 220 230 244 263 277 279 279 282 280 282 286 287 286 284 288 291 292 289
248 242 256 225 192 102 165 158 174 172 163 158 159 156 149 139 123 81 51 36 35 40 108 147 162 163 178 192 204 210 219 230 249 270 275 286 285 280 281 285 291 294 291 292 290 287 286 285 286
248 255 260 276 188 106 160 162 155 171 170 164 157 157 154 148 142 119 81 42 35 39 52 81 106 130 155 172 194 210 213 229 262 285 282 284 289 291 292 290 296 302 302 299 296 295 293 299 301
254 223 229 200 88 51 110 28 186 187 163 164 169 171 165 158 149 144 132 64 43 48 52 70 79 90 101 116 156 179 180 159 162 244 295 321 328 326 325 325 323 321 320 320 319 314 312 315 315
251 244 239 157 132 176 193 209 216 192 178 170 162 162 157 152 148 149 148 106 62 54 54 62 69 75 78 86 107 120 112 86 59 38 9 354 353 352 350 348 346 345 345 341 343 338 330 323 325
240 249 194 173 158 115 209 99 261 172 197 183 159 155 157 154 155 152 141 114 85 61 53 57 58 62 59 61 64 69 69 63 62 58 46 40 36 31 29 24 20 17 16 12 3 359 359 358 346
241 238 125 79 134 178 211 184 228 181 203 152 152 157 157 154 152 144 138 129 101 65 49 52 54 56 54 51 47 42 47 51 50 46 38 34 33 30 27 22 17 15 15 18 22 23 24 25 13
191 82 265 282 128 218 196 207 215 205 165 169 158 154 154 151 149 146 144 142 121 92 44 53 48 56 52 48 45 35 33 30 32 28 24 20 19 21 19 16 14 10 6 5 1 10 15 12 10
249 176 195 215 238 251 118 210 278 275 186 149 143 148 151 152 151 149 152 147 138 120 70 67 51 52 40 31 30 24 27 22 23 24 18 16 16 16 14 15 10 12 6 359 360 10 9 5 0
268 187 196 183 235 102 137 155 28 69 120 137 143 147 144 140 146 147 147 142 134 121 102 102 69 60 37 18 13 16 26 28 27 19 17 22 20 17 12 12 9 9 3 1 358 0 2 360 358
320 334 170 55 188 233 18 261 173 152 144 139 137 136 142 145 146 142 139 133 144 137 121 129 135 93 72 44 14 15 32 32 27 17 12 17 11 12 8 10 5 5 2 359 358 355 355 354 355
351 25 347 86 37 123 111 294 235 171 155 141 139 142 150 155 152 146 138 136 140 142 138 134 135 103 77 64 29 13 12 19 24 16 9 6 0 7 8 9 1 357 358 0 354 348 354 355 350
84 33 61 91 348 356 88 296 74 109 111 125 135 141 147 152 146 140 146 149 139 139 134 142 154 284 43 63 25 7 6 12 12 11 8 2 1 5 3 2 359 356 356 357 354 353 357 353 350